Погода в Преображении

Россия / Приморский край     42°53′59″N   133°54′23″E
темп.,
°C
ветер,
м/с
пор.,
м/с
влажн.,
%
обл.,
%
осадки,
мм/ч
давл.,
гПа
погр.,
м
25 июня, сб
сб2501:00+15з339785 0.0 99236
04:00+15зюз229994 4.1 99223
07:00+16сз0110090 0.8 99368
10:00+19ююз128552 0.8 993475
13:00+22юз586432 0.2 9931078
16:00+22зюз9136213 0.2 9951253
19:00+19зюз51277100 0.0 997976
22:00+18зюз4107731 0.0 1000666
26 июня, вс
вс2601:00+16з34880 0.0 100053
04:00+16сз328811 0.0 100135
07:00+18сз228120 0.0 100354
10:00+23з2561100 0.0 1004533
13:00+22юз3562100 0.0 1004585
16:00+22ссз226787 0.1 1002236
19:00+20юз228492 0.3 100457
22:00+18сз22870 0.4 100628
27 июня, пн
пн2701:00+16с229178 0.0 100738
04:00+15ссв2294100 0.0 100741
07:00+15вюв1193100 0.0 100989
10:00+21юв227048 0.0 1008461
13:00+21ююв326726 0.0 1009537
16:00+21ю226821 0.1 1008345
19:00+19юз2278100 0.0 1008131
22:00+16з2292100 0.0 100925
28 июня, вт
вт2801:00+18зюз1283100 0.0 100812
04:00+18юз1184100 0.0 100712
07:00+16всв24100100 2.2 1007102
10:00+14св2599100 9.6 1006135
13:00+15всв2499100 11.3 1004178
16:00+15всв2499100 17.4 1002146
19:00+15ссв1299100 10.9 100187
22:00+15всв1299100 13.4 100171
29 июня, ср
ср2901:00+15всв02100100 1.5 100077
04:00+15в12100100 1.6 99980
07:00+16в1110099 0.0 100175
10:00+17юв2298100 0.1 1002199
13:00+21юв2278100 0.0 1002400
16:00+19юв2284100 0.0 1002244
19:00+15всв2397100 0.1 1004130
22:00+14всв3597100 0.2 1006161